IZ5MMH-3 Weather Reports


time (UTC)temp
C
wind
direction
speed
KPH
gust
KPH
rain 1hr
cm
rain 24hr
cm
rain mn
cm
humidity
%
barometer
mb
20260507054221 14 0.0 0.0 0.00 0.00 0.00 95 1014.3
20260507053221 14 0.0 0.0 0.00 0.00 0.00 96 1014.3
20260507052221 13 0.0 0.0 0.00 0.00 0.00 97 1014.1
20260507051221 13 0.0 0.0 0.00 0.00 0.00 98 1014.1
20260507050221 13 0.0 0.0 0.00 0.00 0.00 98 1013.9
20260507045221 12 0.0 0.0 0.00 0.00 0.00 98 1013.8
20260507044221 12 0.0 0.0 0.00 0.00 0.00 98 1013.9
20260507043221 12 0.0 0.0 0.00 0.00 0.00 99 1013.8
20260507042221 12 0.0 0.0 0.00 0.00 0.00 98 1013.7
20260507041221 12 0.0 0.0 0.00 0.00 0.00 98 1013.6
20260507040221 12 0.0 0.0 0.00 0.00 0.00 98 1013.6
20260507035221 12 0.0 0.0 0.00 0.00 0.00 98 1013.6
20260507034221 12 0.0 0.0 0.00 0.00 0.00 97 1013.4
20260507033221 12 0.0 0.0 0.00 0.00 0.00 97 1013.4
20260507032221 12 0.0 0.0 0.00 0.00 0.00 97 1013.5
20260507031221 12 0.0 0.0 0.00 0.00 0.00 96 1013.6
20260507030221 13 0.0 0.0 0.00 0.00 0.00 96 1013.6
20260507025221 13 0.0 0.0 0.00 0.00 0.00 96 1013.5
20260507024221 13 0.0 0.0 0.00 0.00 0.00 96 1013.6
20260507023221 13 0.0 0.0 0.00 0.00 0.00 95 1013.4
20260507022221 13 0.0 0.0 0.00 0.00 0.00 95 1013.6
20260507021221 13 0.0 0.0 0.00 0.00 0.00 94 1013.5
20260507020221 13 0.0 0.0 0.00 0.00 0.00 95 1013.4
20260507015221 13 0.0 0.0 0.00 0.00 0.00 96 1013.4
20260507014221 13 0.0 0.0 0.00 0.00 0.00 96 1013.3
20260507013221 13 0.0 0.0 0.00 0.00 0.00 96 1013.2
20260507012221 13 0.0 0.0 0.00 0.00 0.00 95 1013.3
20260507011221 13 0.0 0.0 0.00 0.00 0.00 95 1013.2
20260507010221 13 0.0 0.0 0.00 0.00 0.00 96 1013.2
20260507005221 13 0.0 0.0 0.00 0.00 0.00 95 1013.4
20260507004221 13 0.0 0.0 0.00 0.00 0.00 94 1013.4
20260507003221 13 0.0 0.0 0.00 0.00 0.00 95 1013.4
20260507002221 13 0.0 0.0 0.00 0.00 0.00 93 1013.3
20260507001221 14 0.0 0.0 0.00 0.00 0.00 93 1013.4
20260507000221 15 0.0 0.0 0.00 0.00 0.00 89 1013.3
20260506235221 15 0.0 0.0 0.00 0.00 0.00 86 1013.3
20260506234221 15 0.0 0.0 0.00 0.00 0.00 84 1013.3
20260506233220 15 0.0 0.0 0.00 0.00 0.00 80 1013.3
20260506232221 16 0.0 0.0 0.00 0.00 0.00 74 1013.3
20260506231221 17 0.0 0.0 0.00 0.00 0.00 79 1013.2
20260506230220 17 0.0 0.0 0.00 0.00 0.00 97 1013.0
20260506225221 17 0.0 0.0 0.00 0.00 0.00 97 1013.1
20260506223221 17 0.0 0.0 0.00 0.00 0.00 98 1013.3
20260506222220 17 0.0 0.0 0.00 0.00 0.00 97 1013.2
20260506221221 17 0.0 0.0 0.00 0.00 0.00 96 1013.4
20260506220220 18 0.0 0.0 0.00 0.00 0.00 96 1013.4
20260506215220 18 0.0 0.0 0.00 0.00 0.00 96 1013.4
20260506214220 17 0.0 0.0 0.00 0.00 0.00 96 1013.2
20260506213220 17 0.0 0.0 0.00 0.00 0.00 97 1013.4
20260506212221 17 0.0 0.0 0.00 0.00 0.00 97 1013.3
20260506211221 17 0.0 0.0 0.00 0.00 0.00 97 1013.2
20260506210220 17 0.0 0.0 0.00 0.00 0.00 97 1013.2
20260506205220 18 0.0 0.0 0.00 0.00 0.00 97 1013.2
20260506204220 18 0.0 0.0 0.00 0.00 0.00 96 1013.3
20260506203220 18 0.0 0.0 0.00 0.00 0.00 97 1013.2
20260506202221 18 0.0 0.0 0.00 0.00 0.00 96 1013.1
20260506201220 18 0.0 0.0 0.00 0.00 0.00 96 1012.9
20260506200220 18 0.0 0.0 0.00 0.00 0.00 97 1012.8
20260506195221 18 0.0 0.0 0.00 0.00 0.00 97 1012.7
20260506194220 18 0.0 0.0 0.00 0.00 0.00 98 1012.5
20260506193220 18 0.0 0.0 0.00 0.00 0.00 98 1012.5
20260506192221 18 0.0 0.0 0.00 0.00 0.00 98 1012.4
20260506191221 18 0.0 0.0 0.00 0.00 0.00 96 1012.2
20260506190221 18 0.0 0.0 0.00 0.00 0.00 97 1012.0
20260506185221 18 0.0 0.0 0.00 0.00 0.00 96 1011.9
20260506184221 18 0.0 0.0 0.00 0.00 0.00 96 1011.8
20260506183220 18 0.0 0.0 0.00 0.00 0.00 96 1011.8
20260506182220 18 0.0 0.0 0.00 0.00 0.00 96 1011.7
20260506181220 18 0.0 0.0 0.00 0.00 0.00 94 1011.6
20260506180221 18 0.0 0.0 0.00 0.00 0.00 93 1011.6
20260506175220 18 0.0 0.0 0.00 0.00 0.00 92 1011.5
20260506174220 19 0.0 0.0 0.00 0.00 0.00 91 1011.5
20260506173220 19 0.0 0.0 0.00 0.00 0.00 90 1011.7
20260506172220 19 0.0 0.0 0.00 0.00 0.00 89 1011.6
20260506171221 20 0.0 0.0 0.00 0.00 0.00 87 1011.5
20260506170221 20 0.0 0.0 0.00 0.00 0.00 84 1011.5
20260506165221 20 0.0 0.0 0.00 0.00 0.00 82 1011.5
20260506164220 21 0.0 0.0 0.00 0.00 0.00 80 1011.6
20260506163221 21 0.0 0.0 0.00 0.00 0.00 79 1011.5
20260506162221 21 0.0 0.0 0.00 0.00 0.00 80 1011.7
20260506161220 21 0.0 0.0 0.00 0.00 0.00 79 1011.7
20260506160221 21 0.0 0.0 0.00 0.00 0.00 79 1011.8
20260506155221 21 0.0 0.0 0.00 0.00 0.00 80 1011.8
20260506154221 21 0.0 0.0 0.00 0.00 0.00 78 1011.7
20260506153220 21 0.0 0.0 0.00 0.00 0.00 77 1011.8
20260506152220 21 0.0 0.0 0.00 0.00 0.00 76 1011.6
20260506151220 22 0.0 0.0 0.00 0.00 0.00 73 1011.6
20260506150221 22 0.0 0.0 0.00 0.00 0.00 71 1011.6
20260506145221 22 0.0 0.0 0.00 0.00 0.00 73 1011.6
20260506144220 23 0.0 0.0 0.00 0.00 0.00 69 1011.6
20260506143221 23 0.0 0.0 0.00 0.00 0.00 69 1011.6
20260506142220 23 0.0 0.0 0.00 0.00 0.00 68 1011.6
20260506141220 23 0.0 0.0 0.00 0.00 0.00 67 1011.6
20260506140220 23 0.0 0.0 0.00 0.00 0.00 67 1011.7
20260506135220 23 0.0 0.0 0.00 0.00 0.00 71 1011.6
20260506134220 22 0.0 0.0 0.00 0.00 0.00 72 1011.6
20260506133221 22 0.0 0.0 0.00 0.00 0.00 73 1011.5
20260506132220 22 0.0 0.0 0.00 0.00 0.00 74 1011.8
20260506131220 22 0.0 0.0 0.00 0.00 0.00 74 1011.6
20260506130220 23 0.0 0.0 0.00 0.00 0.00 73 1011.9
20260506125220 22 0.0 0.0 0.00 0.00 0.00 73 1011.9
20260506124220 22 0.0 0.0 0.00 0.00 0.00 76 1012.0
20260506123220 23 0.0 0.0 0.00 0.00 0.00 72 1012.1
20260506122220 22 0.0 0.0 0.00 0.00 0.00 74 1012.2
20260506121220 22 0.0 0.0 0.00 0.00 0.00 75 1012.2
20260506120220 22 0.0 0.0 0.00 0.00 0.00 75 1012.1
20260506115220 22 0.0 0.0 0.00 0.00 0.00 78 1012.1
20260506114220 22 0.0 0.0 0.00 0.00 0.00 76 1012.0
20260506113220 22 0.0 0.0 0.00 0.00 0.00 75 1011.9
20260506112220 22 0.0 0.0 0.00 0.00 0.00 78 1011.9
20260506111220 22 0.0 0.0 0.00 0.00 0.00 81 1011.8
20260506110221 21 0.0 0.0 0.00 0.00 0.00 83 1012.0
20260506105220 20 0.0 0.0 0.00 0.00 0.00 87 1012.1
20260506104220 20 0.0 0.0 0.00 0.00 0.00 85 1012.1
20260506103220 20 0.0 0.0 0.00 0.00 0.00 86 1012.1
20260506102220 20 0.0 0.0 0.00 0.00 0.00 91 1012.2
20260506101220 18 0.0 0.0 0.00 0.00 0.00 91 1012.2
20260506100220 19 0.0 0.0 0.00 0.00 0.00 87 1012.3
20260506095220 20 0.0 0.0 0.00 0.00 0.00 88 1012.3
20260506094220 19 0.0 0.0 0.00 0.00 0.00 87 1012.2
20260506093220 19 0.0 0.0 0.00 0.00 0.00 86 1012.1
20260506092220 20 0.0 0.0 0.00 0.00 0.00 85 1012.0
20260506091220 20 0.0 0.0 0.00 0.00 0.00 85 1012.0
20260506090220 18 0.0 0.0 0.00 0.00 0.00 90 1011.8
20260506085220 18 0.0 0.0 0.00 0.00 0.00 90 1011.9
20260506084220 18 0.0 0.0 0.00 0.00 0.00 91 1011.7
20260506083220 18 0.0 0.0 0.00 0.00 0.00 92 1011.6
20260506082220 18 0.0 0.0 0.00 0.00 0.00 91 1011.6
20260506081220 18 0.0 0.0 0.00 0.00 0.00 89 1011.4
20260506080220 17 0.0 0.0 0.00 0.00 0.00 88 1011.5
20260506073220 18 0.0 0.0 0.00 0.00 0.00 89 1011.5
20260506072220 18 0.0 0.0 0.00 0.00 0.00 89 1011.4
20260506071220 17 0.0 0.0 0.00 0.00 0.00 91 1011.4
20260506070220 17 0.0 0.0 0.00 0.00 0.00 95 1011.6
20260506062220 17 0.0 0.0 0.00 0.00 0.00 90 1011.5
20260506061220 17 0.0 0.0 0.00 0.00 0.00 89 1011.5
20260506060220 17 0.0 0.0 0.00 0.00 0.00 98 1011.7